Starlink 11439

operational
NORAD ID: 62419 Int'l Des: 2024-249 Owner: SPXS Country: US Constellation: starlink
LEOCIRCULAR

About Starlink 11439

Description loading...

Live Position

Loading 3D Globe...

Upcoming Passes

Altitude History

Altitude vs Time

uPlot chart will show altitude changes over time

Two-Line Element Set

1 62419U 24249L 25305.06524027 .00260073 00000-0 19615-2 0 9996
2 62419 42.9987 222.7517 0001159 227.4379 132.6391 15.70912904 49252
Epoch: Nov 1, 2025 • Age: 20 hours

Current Status

Altitude 355.3 km
Velocity 7.70 km/s
Sub-Earth Point -0.32°S, 144.96°W
Launch Date Dec 23, 2024
Age 0.8 years
Type internet

Technical Details

Classification Payload
Mass 960.00 kg
Dry Mass 910.00 kg
Total Mass 960.00 kg
Length 0.30 m
Diameter 4.10 m
Span 29.00 m
Shape Box + pan
Manufacturer SPXS
Bus Type Starlink V2MD
Phase Status In Orbit
Owner/State SPXS/US

Large Constellations

Loading constellations...